Main page


Airports :

Noshahr, Iran

Noshahr Airport

latitude: 36-39-48N, longitude: 051-27-53E, elevation: 0 m

Current weather observation

The report was made 58 minutes ago, at 09:00 UTC
Wind 6 kt from the East
Temperature 14°C
Humidity 67%
Pressure 1017 hPa
Visibility 10 km or more
Few clouds at a height of 2500 ft
Scattered clouds at a height of 9000 ft

METAR: OINN 180900Z 09006KT 9999 FEW025 SCT090 14/08 Q1017

Time: 13:28 (09:58 UTC)

TAF: missing

Weather observations and forecasts of more than 4000 airports (METAR and TAF reports).

The available stations are represented by yellow and red dots on the map.

Hover mouse over dot to see the name of the station.

Then click to see weather observations and forecasts.

To change the map : click on the green buttons with a black cross to zoom in, on the green button with a dash to zoom out, or on the green arrows for adjacent maps.